Home   Weather   Portugal   Funchal   Past weeks
Flag for Portugal

Past Weather in Funchal, Madeira, Portugal — Yesterday and Last 2 Weeks

Currently: 72 °F. Passing clouds. (Weather station: Aeroporto Da Madeira, Portugal). See more current weather

Past Weather in Funchal — Graph

°F

Funchal Temperature Yesterday

Maximum temperature yesterday: 77 °F (at 1:30 pm)
Minimum temperature yesterday: 66 °F (at 2:30 am)
Average temperature yesterday: 71 °F

High & Low Weather Summary for the Past Weeks

 TemperatureHumidityPressure
High79 °F (Oct 7, 2:30 pm)88% (Oct 3, 11:30 pm)30.27 "Hg (Oct 3, 11:30 pm)
Low64 °F (Oct 13, 6:00 am)50% (Oct 4, 5:30 pm)29.98 "Hg (Oct 11, 3:30 pm)
Average72 °F68%30.11 "Hg
* Reported Oct 3 8:00 pm — Oct 18 8:30 pm, Funchal. Weather by CustomWeather, © 2021

Note: Actual official high and low records may vary slightly from our data, if they occured in-between our weather recording intervals... More about our weather records

Funchal Weather History for the Previous 24 Hours

Scroll right to see more
 ConditionsComfort  
Time TempWeatherWind HumidityBarometerVisibility
8:30 pm
Mon, Oct 18
73 °FPassing clouds.5 mph69%30.09 "HgN/A
8:00 pm73 °FSunny.1 mph74%30.07 "Hg10 mi
7:30 pm73 °FPassing clouds.5 mph78%30.07 "HgN/A
7:00 pm73 °FPassing clouds.6 mph78%30.07 "HgN/A
6:30 pm75 °FSunny.8 mph74%30.07 "Hg10 mi
6:00 pm75 °FSunny.9 mph74%30.07 "Hg10 mi
5:30 pm77 °FSunny.9 mph74%30.04 "Hg10 mi
5:00 pm77 °FSunny.12 mph69%30.04 "Hg10 mi
4:30 pm77 °FSunny.13 mph69%30.04 "Hg10 mi
4:00 pm77 °FSunny.13 mph74%30.07 "Hg10 mi
3:30 pm77 °FSunny.13 mph74%30.07 "Hg10 mi
3:00 pm77 °FSunny.13 mph74%30.07 "Hg10 mi
2:30 pm77 °FSunny.12 mph69%30.09 "Hg10 mi
1:30 pm75 °FSunny.12 mph74%30.09 "Hg10 mi
1:00 pm75 °FSunny.10 mph74%30.09 "Hg10 mi
12:30 pm75 °FSunny.10 mph74%30.12 "Hg10 mi
12:00 pm75 °FPassing clouds.12 mph74%30.12 "HgN/A
11:30 am75 °FSunny.10 mph69%30.12 "Hg10 mi
11:00 am75 °FSunny.9 mph69%30.12 "Hg10 mi
10:30 am73 °FSunny.8 mph74%30.12 "Hg10 mi
10:00 am73 °FPassing clouds.6 mph74%30.09 "HgN/A
9:30 am70 °FPassing clouds.3 mph64%30.09 "HgN/A
9:00 am68 °FPassing clouds.6 mph64%30.09 "HgN/A
8:30 am68 °FPassing clouds.5 mph60%30.09 "HgN/A
8:00 am66 °FPassing clouds.2 mph78%30.09 "HgN/A
7:30 am66 °FPassing clouds.2 mph78%30.07 "HgN/A
7:00 am66 °FPassing clouds.No wind78%30.07 "HgN/A
6:30 am66 °FPassing clouds.No wind78%30.07 "HgN/A
6:00 am66 °FPassing clouds.3 mph83%30.07 "HgN/A
5:30 am66 °FPassing clouds.1 mph83%30.07 "HgN/A
5:00 am68 °FPassing clouds.5 mph83%30.07 "HgN/A
4:30 am68 °FPassing clouds.5 mph83%30.07 "HgN/A
4:00 am68 °FPassing clouds.6 mph83%30.09 "HgN/A
3:30 am68 °FPassing clouds.5 mph83%30.09 "HgN/A
3:00 am68 °FPassing clouds.3 mph83%30.09 "HgN/A
2:30 am68 °FPassing clouds.2 mph78%30.09 "HgN/A
2:00 am68 °FPassing clouds.3 mph73%30.09 "HgN/A
1:30 am70 °FPassing clouds.5 mph78%30.09 "HgN/A
1:00 am70 °FPassing clouds.3 mph78%30.09 "HgN/A
12:30 am70 °FPassing clouds.3 mph78%30.09 "HgN/A
12:00 am70 °FPassing clouds.5 mph78%30.09 "HgN/A
11:30 pm
Sun, Oct 17
70 °FPassing clouds.5 mph78%30.09 "HgN/A
11:00 pm72 °FPassing clouds.5 mph78%30.09 "HgN/A
10:30 pm72 °FPassing clouds.5 mph78%30.09 "HgN/A
10:00 pm72 °FPassing clouds.5 mph78%30.09 "HgN/A
Weather by CustomWeather, © 2021

See weather overview